#timestamp,LO_Frequency,Hit,StdDev 
1618342355.8,286047169.8,P
1618342375.7,286047171.9,P
1618342395.5,286047172.1,P
1618342415.3,286047173.6,Y
1618342435.2,286047004.1,P
1618342455.0,286047003.6,N
1618342455.9,286047003.6,N
1618342475.8,286047001.9,N
1618342495.6,286047001.8,N
1618342515.4,286047002.8,N
1618342535.3,286047002.1,N
1618342555.1,286047002.3,N
1618342575.8,286047000.1,N
1618342595.7,286047002.1,N
1618342615.5,286047003.8,N
1618342635.4,286047001.3,N
1618342655.2,286047001.6,N
1618342675.0,286047002.1,N
1618342675.9,286047002.1,N
1618342695.8,286047002.0,N
1618342715.6,286047001.6,N
1618342735.4,286047003.2,N
1618342755.3,286047003.7,N
1618342775.1,286047005.0,N
1618342795.9,286047007.1,N
1618342815.7,286047004.8,N
1618342835.5,286047003.4,N
1618342855.4,286047005.5,N
1618342875.2,286047005.3,N
1618342895.0,286047004.9,N
1618342895.9,286047004.9,N
1618342915.8,286047005.3,N
1618342935.6,286047004.7,N
1618342955.5,286047004.9,N
1618342975.3,286047008.7,Y
1618342995.1,286047005.3,P
1618343015.9,286047006.0,P
1618343035.7,286047006.0,P
1618343055.5,286047004.5,Y
1618343075.4,286047000.1,P
1618343095.2,286047002.2,N
1618343115.1,286047004.0,N
1618343116.0,286047004.0,N
1618343135.8,286047002.1,N
1618343155.6,286047001.7,N
1618343175.5,286047001.8,N
1618343195.3,286047003.9,N
1618343215.1,286047003.9,N
1618343235.9,286047001.4,N
1618343255.7,286047001.8,N
1618343275.6,286047001.6,N
1618343295.4,286047001.7,N
1618343315.2,286047001.5,N
1618343335.1,286047003.9,N
1618343336.0,286047003.9,N
1618343355.8,286047004.2,Y
1618343375.6,286046998.5,P
1618343395.5,286046998.2,N
1618343415.3,286047000.7,N
1618343435.2,286047000.6,N
1618343455.9,286047000.5,N
1618343475.7,286046998.1,N
1618343495.6,286047000.2,N
1618343515.4,286047002.7,N
1618343535.2,286047002.3,N
1618343555.1,286047000.2,N
1618343556.0,286047000.2,N
1618343575.8,286047000.1,N
1618343595.7,286047000.3,N
1618343615.5,286046999.8,N
1618343635.3,286047002.4,N
1618343655.2,286047000.2,N
1618343675.0,286047002.8,N
1618343675.9,286047002.8,N
1618343695.8,286046998.1,N
1618343715.6,286047002.0,N
1618343735.4,286047002.7,N
1618343755.3,286047002.2,N
1618343775.1,286047000.6,N
1618343795.8,286046999.7,N
1618343815.7,286046999.8,N
1618343835.5,286047002.4,N
1618343855.4,286047002.6,N
1618343875.2,286047004.0,N
1618343895.0,286047002.5,N
1618343895.9,286047002.5,N
1618343915.8,286047002.0,N
1618343935.6,286047002.1,N
1618343955.4,286047001.6,N
1618343975.3,286047004.4,Y
1618343995.1,286047002.1,P
